Regional Weather Roundup
Issued by NWS Sterling, VA

Home | Current Version | Previous Version | Text Only | Print | Product List | Glossary On
Versions: 1 2 3 4 5 6 7 8 9 10 11 12 13 14 15 16 17 18 19 20 21 22 23 24 25 26 27 28 29 30 31 32 33 34 35 36 37 38 39 40 41 42 43 44 45 46 47 48 49 50
000
ASUS41 KLWX 220411
RWRLWX

REGIONAL WEATHER ROUNDUP
NATIONAL WEATHER SERVICE BALTIMORE MD/WASHINGTON DC
1200 AM EDT FRI SEP 22 2017

Note: "FAIR" indicates few or no clouds below 12,000 feet
with no significant weather and/or obstructions to visibility.
 TC=TEMPERATURE CELSIUS

 * =Non NWS site. Station does not report precipitation (e.g. rain,
    snow, etc.), thunder, or fog.

DCZ001-MDZ009-015-VAZ040>042-051-053>054-220500-
WASHINGTON METRO

CITY           SKY/WX    TMP DP  RH WIND       PRES   REMARKS
WASHINGTON NAT CLOUDY    76  70  82 CALM      30.05S
DULLES         MOCLDY    68  65  90 CALM      30.06S
ANDREWS AFB    MOCLDY    69  65  86 CALM      30.04S
FT BELVOIR     PTCLDY    67  65  94 CALM      30.05R
QUANTICO       PTCLDY    71  69  93 NW6       30.06R
COLLEGE PARK*  CLOUDY    67  65  94 CALM      30.04S
LEESBURG*      CLOUDY    66  66 100 CALM      30.07S
MANASSAS*      CLOUDY    65  63  93 CALM      30.06S
GAITHERSBURG*  CLOUDY    65  64  97 CALM      30.07S

$$

MDZ006>007-011-014-220500-
BALTIMORE METRO

CITY           SKY/WX    TMP DP  RH WIND       PRES   REMARKS
BWI AIRPORT    CLOUDY    67  67 100 W3        30.03S
MD SCIENCE CTR   N/A     80  64  58 MISG      30.03S
MARTIN STATE   CLOUDY    72  68  88 NW3       30.04S
ANNAPOLIS      CLOUDY    74  72  93 CALM      30.02F
FORT MEADE*    CLOUDY    64  63  94 CALM      30.06S

$$

MDZ012-015-019>023-220500-
MARYLAND EASTERN SHORE

CITY           SKY/WX    TMP DP  RH WIND       PRES   REMARKS
OCEAN CITY     CLOUDY    68  66  93 CALM      30.03S
SALISBURY      MOCLDY    68  67  96 SW3       30.02F
CAMBRIDGE*     CLEAR     70  68  94 CALM      30.03S
EASTON*        CLOUDY    71  68  90 CALM      30.06S

$$

MDZ017>025-220500-
SOUTHERN MARYLAND

CITY           SKY/WX    TMP DP  RH WIND       PRES   REMARKS
PATUXENT RIVER MOCLDY    68  67  96 W3        30.04R
ST INIGOES     PTCLDY    67  65  93 CALM      30.03S
LEONARDTOWN*   CLOUDY    68  64  88 CALM      30.06R

$$

MDZ003>005-220500-
NORTH CENTRAL MARYLAND

CITY           SKY/WX    TMP DP  RH WIND       PRES   REMARKS
FREDERICK*     PTCLDY    66  66 100 CALM      30.09S FOG
HAGERSTOWN APT PTCLDY    72  62  71 CALM      30.08S
WESTMINSTER*   PTCLDY    70  64  83 CALM      30.08S

$$

MDZ501>502-220500-
WESTERN MARYLAND

CITY           SKY/WX    TMP DP  RH WIND       PRES   REMARKS
OAKLAND*       CLEAR     64  54  68 CALM      30.18S
CUMBERLAND*    CLEAR     68  63  83 NE5       30.14S

$$

VAZ025>031-220500-
SHENANDOAH VALLEY

CITY           SKY/WX    TMP DP  RH WIND       PRES   REMARKS
WINCHESTER*    PTCLDY    64  61  88 CALM      30.09R
FRONT ROYAL*   PTCLDY    63  63 100 CALM      30.08S
LURAY*         PTCLDY    64  61  88 CALM      30.11R
NEW MARKET*    PTCLDY    62  59  91 CALM      30.11R
STAUNTON*      PTCLDY    62  60  91 CALM      30.13S
WAYNESBORO*    CLEAR     65  63  91 CALM      30.13R

$$

WVZ021-048>050-054>055-220500-
EASTERN WEST VIRGINIA PANHANDLE

CITY           SKY/WX    TMP DP  RH WIND       PRES   REMARKS
MARTINSBURG    CLOUDY    63  60  90 CALM      30.07S
PETERSBURG*    PTCLDY    63  61  93 CALM      30.12S

$$

VAZ036>039-050-220500-
CENTRAL FOOTHILLS

CITY           SKY/WX    TMP DP  RH WIND       PRES   REMARKS
CHARLOTTESVILL CLEAR     69  67  93 CALM      30.09R
CULPEPER*      PTCLDY    64  63  98 CALM      30.08R
ORANGE*        PTCLDY    63  61  94 CALM      30.08S
GORDONSVILLE*  PTCLDY    64  64 100 CALM      30.07S
WARRENTON*     PTCLDY    61  57  86 CALM      30.07R

$$

VAZ055>057-220500-
NORTH AND CENTRAL PIEDMONT

CITY           SKY/WX    TMP DP  RH WIND       PRES   REMARKS
FREDERICKSBRG* PTCLDY    67  67 100 CALM      30.05S
STAFFORD*      PTCLDY    64  64 100 CALM      30.09F

$$

NCZ024-NYZ072-PAZ021-071-VAZ022-071-220500-
OTHER REGIONAL OBSERVATIONS

CITY           SKY/WX    TMP DP  RH WIND       PRES   REMARKS
NEW YORK CITY  CLOUDY    73  62  68 VRB3      30.04F
PHILADELPHIA   CLOUDY    74  61  63 NE6       30.03S
PITTSBURGH     PTCLDY    70  63  78 CALM      30.11F
ROANOKE        MOCLDY    72  66  81 CALM      30.13S
RICHMOND       PTCLDY    68  64  87 S3        30.06R
RALEIGH        PTCLDY    66  66 100 CALM      30.08R

$$

ANZ530>537-220500-
MARINE OBSERVATIONS

STATION/POSITION TIME  TEMP    WIND        PRES
                       AIR SEA DIR/SP/G
                 (UTC) (F)     (DEG/KT/KT) (MB)
THOMAS PT LIGHT  0400   75 76  280/  8/  9   N/A
BALT KEY BRIDGE  0342   77     270/  5/  6 1016.7S
COVE POINT       0342   75     190/  9/ 10 1017.8R
LEWISETTA        0342   73 78  230/  2/  3 1017.2R
SOLOMONS ISLAND  0342   74 76     CALM     1016.8R
PINEY POINT      0342             CALM       N/A

$$




USA.gov is the U.S. government's official web portal to all federal, state and local government web resources and services.